Regional Weather Roundup
Issued by NWS

Home | Current Version | Previous Version | Text Only | Print | Product List | Glossary On
Versions: 1 2 3 4 5 6 7 8 9 10 11 12 13 14 15 16 17 18 19 20 21 22 23 24 25 26 27 28 29 30 31 32 33 34 35 36 37 38 39 40 41 42 43 44 45 46 47 48 49 50
000
ASUS43 KFSD 200610
RWRSD

WEATHER ROUNDUP FOR SOUTH DAKOTA
NATIONAL WEATHER SERVICE SIOUX FALLS SD
1200 AM CST MON NOV 20 2017

NOTE: "FAIR" INDICATES FEW OR NO CLOUDS BELOW 12,000 FEET WITH NO
SIGNIFICANT WEATHER AND/OR OBSTRUCTIONS TO VISIBILITY.


SDZ001>005-009-010-012>017-200700-
NORTHWEST AND NORTH CENTRAL SOUTH DAKOTA

CITY           SKY/WX    TMP DP  RH WIND       PRES   REMARKS
BUFFALO          N/A     36  21  54 W10       29.58S
FAITH            N/A     34  22  61 S13       29.64F WCI  25
MOBRIDGE       CLOUDY    31  24  75 SE8       29.63F WCI  23
$$

SDZ012>016-024>037-041>051-057-063-072>074-200700-
SOUTHWEST AND SOUTH CENTRAL SOUTH DAKOTA

CITY           SKY/WX    TMP DP  RH WIND       PRES   REMARKS
RAPID CTY ARPT CLOUDY    31  16  54 CALM      29.69F
PIERRE         CLEAR     30  21  69 CALM      29.66F
CUSTER         CLOUDY    35  11  36 SW8       29.75F WCI  29
ELLSWORTH AFB  CLOUDY    37  17  43 SW9       29.67F
PHILIP         CLOUDY    25  21  85 W8        29.68F WCI  16
PINE RIDGE     CLEAR     37  14  38 W8        29.77F
SPEARFISH      FAIR      46   9  21 VRB5G17   29.67F
WINNER         FAIR      43  21  41 SW14      29.70F
$$

SDZ004>011-016>023-039-040-200700-
NORTHEAST SOUTH DAKOTA

CITY           SKY/WX    TMP DP  RH WIND       PRES   REMARKS
ABERDEEN       CLOUDY    22  19  89 E7        29.69F WCI  13
WATERTOWN      CLOUDY    28  23  81 S6        29.71F WCI  22
BROOKINGS      CLOUDY    33  23  66 S9        29.74S WCI  25
SISSETON         N/A     38  24  57 SE5       29.70F
$$

SDZ017-020-022-023-036>040-048>070-200700-
SOUTHEAST SOUTH DAKOTA

CITY           SKY/WX    TMP DP  RH WIND       PRES   REMARKS
SIOUX FALLS    CLOUDY    37  25  61 SW6       29.75F
HURON          CLOUDY    30  23  75 S9        29.71F WCI  22
CHAMBERLAIN    CLEAR     36  24  62 SW5       29.69F
MITCHELL       CLOUDY    32  23  69 S8        29.72F WCI  25
YANKTON        PTCLDY    41  25  53 SW8       29.77F
$$

ABBREVIATIONS USED IN REMARKS
   TC - TEMPERATURE IN CELSIUS
  WCI - WIND CHILL INDEX
   HX - HEAT INDEX
  VSB - VISIBILITY





USA.gov is the U.S. government's official web portal to all federal, state and local government web resources and services.